Location: Alvediston
(51.0078°N, 2.0364°W)
Time: 14:58:09
(UTC+00:00)

STARLINK-1008 - Pass Details

Date: 27 February 2020
Orbit: 549 x 550 km, 53.0° (Epoch: 08 April)

Event Time Altitude Azimuth Distance (km) Brightness Sun altitude
Rises 19:51:43 0° 283° (WNW) 2,728 8.8 -20.6°
Reaches altitude 10° 19:53:57 10° 285° (WNW) 1,833 7.5 -21.0°
Maximum altitude 19:58:07 74° 11° (N) 580 3.6 -21.6°
Enters shadow 19:58:28 68° 54° (NE) 598 3.5 -21.7°
